Location: Bakov nad Jizerou
(50.4784°N, 14.9394°E)
Time: 15:20:11
(UTC+00:00)

SL-4 R/B - Pass Details

Date: 16 June 2021
Orbit: 428 x 662 km, 51.6° (Epoch: 02 August)

Event Time Altitude Azimuth Distance (km) Brightness Sun altitude
Exits shadow 22:30:08 23° 127° (SE) 1,091 3.1 -15.8°
Drops below altitude 10° 22:32:31 10° 89° (E) 1,654 4.4 -15.9°
Sets 22:34:52 0° 75° (ENE) 2,498 5.5 -15.9°
